Weather History for KIRS - May, 2013

Change the Weather History Date:

Tuesday, May 28, 2013

  Actual Average (KHAI) Record (KHAI)
Temperature  
Mean Temperature 66 °F -  
Max Temperature 78 °F 74 °F - (-1)
Min Temperature 55 °F 49 °F - (-1)
Cooling Degree Days 2    
Growing Degree Days 16 (Base 50)    
Moisture  
Dew Point 64 °F    
Average Humidity 87    
Maximum Humidity 100    
Minimum Humidity 74    
Precipitation  
Precipitation 0.00 in - - ()
Sea Level Pressure  
Sea Level Pressure 29.87 in    
Wind  
Wind Speed 9 mph (SSW)    
Max Wind Speed 23 mph    
Max Gust Speed 26 mph    
Visibility 8 miles    
Events Fog , Rain    
Averages and records for this station are not official NWS values.
T = Trace of Precipitation, MM = Missing Value Source: NWS Daily Summary

Daily Weather History Graph

Daily Weather History Graph

Search for Another Location

Airport or City:

Trip Planner

Search our weather history database for the weather conditions in past years. The results will help you decide how hot, cold, wet, or windy it might be!

Date:

Astronomy

May. 28, 2013 Rise Set
Actual Time 6:11 AM EDT 9:07 PM EDT
Civil Twilight 5:38 AM EDT 9:40 PM EDT
Nautical Twilight 4:56 AM EDT 10:22 PM EDT
Astronomical Twilight 4:07 AM EDT 11:11 PM EDT
Moon No Moon Rise 10:00 AM EDT (5/28)
Length of Visible Light 16h 02m
Length of Day
14h 56m
Waning Gibbous, 83% of the Moon is Illuminated
May 28
Waning Gibbous
May 31
Last Quarter
Jun 8
New
Jun 16
First Quarter
Jun 23
Full

Hourly Weather History & Observations

Time (EDT) Temp. Dew Point Humidity Pressure Visibility Wind Dir Wind Speed Gust Speed Precip Events Conditions
12:14 AM 55.4 °F 53.6 °F 94% 29.94 in 5.0 mi East 5.8 mph - N/A   Mostly Cloudy
12:35 AM 55.4 °F 53.6 °F 94% 29.93 in 5.0 mi ESE 5.8 mph - N/A   Overcast
12:55 AM 55.4 °F 53.6 °F 94% 29.92 in 5.0 mi ESE 5.8 mph - N/A   Overcast
1:14 AM 55.4 °F 53.6 °F 94% 29.92 in 5.0 mi ESE 5.8 mph - N/A   Overcast
1:35 AM 55.4 °F 53.6 °F 94% 29.92 in 4.0 mi ESE 4.6 mph - N/A   Overcast
1:55 AM 55.4 °F 55.4 °F 100% 29.92 in 3.0 mi SE 5.8 mph - N/A   Overcast
2:14 AM 55.4 °F 55.4 °F 100% 29.91 in 1.5 mi SE 4.6 mph - N/A   Overcast
2:35 AM 55.4 °F 55.4 °F 100% 29.92 in 0.5 mi South 5.8 mph - N/A Fog Fog
2:55 AM 55.4 °F 55.4 °F 100% 29.91 in 0.2 mi South 4.6 mph - N/A Fog Fog
3:14 AM 55.4 °F 55.4 °F 100% 29.91 in 0.2 mi Calm Calm - N/A Fog Fog
3:35 AM 57.2 °F 57.2 °F 100% 29.90 in 0.5 mi SSE 4.6 mph - N/A Fog Fog
3:55 AM 57.2 °F 57.2 °F 100% 29.89 in 1.0 mi South 5.8 mph - N/A Rain Rain
4:15 AM 57.2 °F 57.2 °F 100% 29.89 in 2.0 mi South 10.4 mph 16.1 mph N/A Rain Rain
4:35 AM 60.8 °F 60.8 °F 100% 29.90 in 5.0 mi SSW 18.4 mph 21.9 mph N/A Rain Light Rain
4:54 AM 60.8 °F 60.8 °F 100% 29.92 in 5.0 mi SW 10.4 mph - N/A Rain Light Rain
5:15 AM 60.8 °F 60.8 °F 100% 29.90 in 5.0 mi SSW 10.4 mph - N/A Rain Light Rain
5:35 AM 60.8 °F 60.8 °F 100% 29.90 in 5.0 mi SSW 10.4 mph - N/A Rain Rain
5:55 AM 62.6 °F 60.8 °F 94% 29.89 in 7.0 mi South 4.6 mph - N/A Rain Light Rain
6:14 AM 62.6 °F 60.8 °F 94% 29.91 in 5.0 mi Calm Calm - N/A Rain Light Rain
6:35 AM 62.6 °F 60.8 °F 94% 29.89 in 7.0 mi Calm Calm - N/A   Mostly Cloudy
6:55 AM 62.6 °F 62.6 °F 100% 29.89 in 10.0 mi Calm Calm - N/A   Mostly Cloudy
7:14 AM 62.6 °F 62.6 °F 100% 29.89 in 10.0 mi South 3.5 mph - N/A   Overcast
7:35 AM 64.4 °F 62.6 °F 94% 29.89 in 10.0 mi Calm Calm - N/A   Mostly Cloudy
7:55 AM 64.4 °F 62.6 °F 94% 29.89 in 10.0 mi South 3.5 mph - N/A   Mostly Cloudy
8:14 AM 64.4 °F 62.6 °F 94% 29.89 in 10.0 mi South 5.8 mph - N/A   Scattered Clouds
8:35 AM 64.4 °F 62.6 °F 94% 29.90 in 10.0 mi SSW 11.5 mph 16.1 mph N/A   Mostly Cloudy
8:55 AM 66.2 °F 62.6 °F 88% 29.89 in 10.0 mi SSW 10.4 mph 18.4 mph N/A   Mostly Cloudy
9:14 AM 66.2 °F 62.6 °F 88% 29.89 in 10.0 mi SSW 11.5 mph 16.1 mph N/A   Mostly Cloudy
9:35 AM 66.2 °F 62.6 °F 88% 29.88 in 10.0 mi SSW 10.4 mph 18.4 mph N/A   Scattered Clouds
9:55 AM 69.8 °F 64.4 °F 83% 29.87 in 10.0 mi SSW 13.8 mph 19.6 mph N/A   Scattered Clouds
10:14 AM 69.8 °F 64.4 °F 83% 29.88 in 10.0 mi SSW 17.3 mph 20.7 mph N/A   Scattered Clouds
10:35 AM 69.8 °F 64.4 °F 83% 29.87 in 10.0 mi SSW 18.4 mph - N/A   Scattered Clouds
10:54 AM 71.6 °F 64.4 °F 78% 29.87 in 10.0 mi SSW 16.1 mph - N/A   Clear
11:15 AM 71.6 °F 64.4 °F 78% 29.87 in 10.0 mi SW 15.0 mph 23.0 mph N/A   Scattered Clouds
11:35 AM 73.4 °F 66.2 °F 78% 29.87 in 10.0 mi SW 18.4 mph 23.0 mph N/A   Scattered Clouds
11:54 AM 71.6 °F 66.2 °F 83% 29.86 in 10.0 mi SW 18.4 mph 23.0 mph N/A   Scattered Clouds
12:15 PM 71.6 °F 66.2 °F 83% 29.87 in 10.0 mi SW 21.9 mph 26.5 mph N/A   Mostly Cloudy
12:35 PM 69.8 °F 64.4 °F 83% 29.85 in 5.0 mi SSW 12.7 mph 21.9 mph N/A Rain Light Rain
12:54 PM 69.8 °F 66.2 °F 88% 29.85 in 10.0 mi SW 10.4 mph - N/A   Scattered Clouds
1:15 PM 73.4 °F 68.0 °F 83% 29.84 in 10.0 mi SSW 13.8 mph - N/A   Clear
1:35 PM 73.4 °F 68.0 °F 83% 29.84 in 10.0 mi SSW 13.8 mph - N/A   Scattered Clouds
1:54 PM 73.4 °F 66.2 °F 78% 29.85 in 10.0 mi SW 15.0 mph 21.9 mph N/A   Mostly Cloudy
2:15 PM 73.4 °F 68.0 °F 83% 29.85 in 10.0 mi SW 13.8 mph - N/A   Scattered Clouds
2:35 PM 73.4 °F 66.2 °F 78% 29.87 in 10.0 mi WSW 13.8 mph 19.6 mph N/A   Drizzle
2:54 PM 73.4 °F 68.0 °F 83% 29.86 in 10.0 mi WSW 10.4 mph - N/A   Scattered Clouds
3:15 PM 73.4 °F 68.0 °F 83% 29.86 in 10.0 mi SW 11.5 mph - N/A   Clear
3:34 PM 75.2 °F 68.0 °F 78% 29.85 in 10.0 mi SW 11.5 mph - N/A   Scattered Clouds
3:55 PM 75.2 °F 68.0 °F 78% 29.85 in 10.0 mi SW 13.8 mph - N/A   Scattered Clouds
4:15 PM 73.4 °F 69.8 °F 88% 29.85 in 10.0 mi SW 11.5 mph 15.0 mph N/A   Scattered Clouds
4:34 PM 75.2 °F 69.8 °F 83% 29.84 in 10.0 mi SW 10.4 mph - N/A   Scattered Clouds
4:55 PM 73.4 °F 69.8 °F 88% 29.85 in 10.0 mi SW 9.2 mph - N/A   Mostly Cloudy
5:15 PM 75.2 °F 69.8 °F 83% 29.84 in 10.0 mi SSW 13.8 mph 19.6 mph N/A   Scattered Clouds
5:34 PM 77.0 °F 69.8 °F 78% 29.83 in 10.0 mi SW 12.7 mph - N/A   Scattered Clouds
5:54 PM 75.2 °F 69.8 °F 83% 29.84 in 10.0 mi SW 16.1 mph 24.2 mph N/A   Scattered Clouds
6:15 PM 78.8 °F 69.8 °F 74% 29.84 in 10.0 mi SW 23.0 mph 26.5 mph N/A   Scattered Clouds
6:35 PM 77.0 °F 69.8 °F 78% 29.83 in 10.0 mi SSW 17.3 mph 24.2 mph N/A   Scattered Clouds
6:54 PM 75.2 °F 69.8 °F 83% 29.83 in 10.0 mi SW 17.3 mph 23.0 mph N/A   Mostly Cloudy
7:15 PM 75.2 °F 69.8 °F 83% 29.83 in 10.0 mi SSW 13.8 mph - N/A   Scattered Clouds
7:35 PM 75.2 °F 68.0 °F 78% 29.84 in 10.0 mi SW 12.7 mph 16.1 mph N/A   Mostly Cloudy
7:54 PM 75.2 °F 68.0 °F 78% 29.83 in 10.0 mi SSW 13.8 mph - N/A   Overcast
8:15 PM 75.2 °F 68.0 °F 78% 29.83 in 10.0 mi SW 11.5 mph - N/A   Mostly Cloudy
8:35 PM 75.2 °F 68.0 °F 78% 29.82 in 10.0 mi SSW 11.5 mph 17.3 mph N/A   Scattered Clouds
8:54 PM 73.4 °F 66.2 °F 78% 29.82 in 10.0 mi SSW 10.4 mph - N/A   Mostly Cloudy
9:15 PM 73.4 °F 66.2 °F 78% 29.82 in 10.0 mi SW 11.5 mph 17.3 mph N/A   Mostly Cloudy
9:35 PM 73.4 °F 68.0 °F 83% 29.82 in 10.0 mi SSW 10.4 mph - N/A   Overcast
9:54 PM 73.4 °F 66.2 °F 78% 29.82 in 10.0 mi SW 9.2 mph - N/A   Overcast
10:15 PM 73.4 °F 66.2 °F 78% 29.83 in 10.0 mi SSW 8.1 mph - N/A   Overcast
10:35 PM 73.4 °F 68.0 °F 83% 29.83 in 10.0 mi South 9.2 mph - N/A   Overcast
10:55 PM 73.4 °F 68.0 °F 83% 29.83 in 10.0 mi South 12.7 mph - N/A   Mostly Cloudy
11:15 PM 73.4 °F 68.0 °F 83% 29.83 in 10.0 mi SSW 13.8 mph 21.9 mph N/A   Mostly Cloudy
11:34 PM 73.4 °F 66.2 °F 78% 29.84 in 10.0 mi SSW 15.0 mph 19.6 mph N/A   Mostly Cloudy
11:55 PM 73.4 °F 66.2 °F 78% 29.85 in 10.0 mi SSW 18.4 mph 23.0 mph N/A   Overcast